Weather in Magny-le-Hongre

France     48°51′35″N   2°48′48″E
temp.,
°C
wind,
m/s
gust,
m/s
humid.,
%
clouds,
%
prec.,
mm/h
press.,
hPa
HPBL,
m
5 december, sun
sun501:00+5sw61283100 0.1 1004648
04:00+4wsw61086100 0.0 1003704
07:00+4wsw599176 0.0 1002308
10:00+4w61193100 0.8 1003911
13:00+5wnw71184100 1.5 10031189
16:00+5nw4990100 2.0 1004978
19:00+4nw378893 2.1 1007179
22:00+5nnw4990100 2.4 1009952
6 december, mon
mon601:00+5nw488999 4.4 1011534
04:00+4n249496 0.3 1013134
07:00+3nne22957 0.4 101644
10:00+3s118723 0.0 101756
13:00+6ssw4573100 0.0 1016560
16:00+7ssw61174100 0.0 1013776
19:00+6sw81583100 0.6 10111113
22:00+5w497913 2.1 1013422
7 december, tue
tue701:00+5w6118376 2.1 1015477
04:00+3wsw488837 0.0 1016194
07:00+2sw3392100 0.0 101562
10:00+3s3789100 0.0 1013218
13:00+5sse51180100 0.0 1010602
16:00+5sse81483100 0.1 1003824
19:00+5sse81790100 1.8 999848
22:00+7wsw61286100 0.3 997763
8 december, wed
wed801:00+3sw4990100 0.3 998199
04:00+3ssw41085100 0.0 998294
07:00+4ssw3694100 0.8 998571
10:00+4sw578236 0.4 998542
13:00+6ssw7107311 0.4 997945
16:00+6s611745 0.0 996842
19:00+5s71479100 0.0 996849
22:00+4s71193100 1.8 996876
9 december, thu
thu901:00+5s71290100 2.5 9941113
04:00+4sse3695100 0.3 994486
07:00+3sse4595100 1.9 995456
10:00+3ne3596100 0.2 997425
13:00+4nne3690100 0.3 999710
16:00+3n5794100 0.1 1001668
19:00+3nnw4787100 0.2 1004491
22:00+2nw248570 0.0 100569